Location: site
(53.0000°N, 23.0500°E)
Time: 17:02:52
(UTC+01:00)

SAOCOM 1-A - Pass Details

Date: 20 January 2020
Orbit: 621 x 623 km, 97.9° (Epoch: 25 February)

Event Time Altitude Azimuth Distance (km) Brightness Sun altitude
Exits shadow 16:31:20 - 39° (NE) 2,415 ? -6.4°
Reaches altitude 10° 16:32:56 10° 54° (NE) 2,003 ? -6.6°
Maximum altitude 16:35:18 14° 87° (E) 1,729 ? -6.9°
Drops below altitude 10° 16:37:39 10° 120° (ESE) 1,993 ? -7.2°
Sets 16:40:48 0° 145° (SE) 2,893 ? -7.7°
